Regional Weather Roundup
Issued by NWS Goodland, KS

Home | Current Version | Previous Version | Text Only | Print | Product List | Glossary Off
Versions: 1 2 3 4 5 6 7 8 9 10 11 12 13 14 15 16 17 18 19 20 21 22 23 24 25 26 27 28 29 30 31 32 33 34 35 36 37 38 39 40 41 42 43 44 45 46 47 48 49 50

000
ASUS43 KGLD 260308
RWRGLD

GOODLAND FORECAST AREA HOURLY WEATHER ROUNDUP
NATIONAL WEATHER SERVICE GOODLAND KS
800 PM MST SAT FEB 25 2017

...OFFICIAL OBSERVATIONS...

CITY           SKY/WX    TMP DP  RH WIND       PRES   REMARKS
GOODLAND KS    CLOUDY    19   7  59 E6        29.83S
HILL CITY KS   CLEAR     28  12  51 N5        29.89F
IMPERIAL NEB   CLOUDY    29  18  63 SW5       29.87R
MCCOOK NEB     CLOUDY    29  13  51 NW7       29.88F
AKRON CO       CLOUDY    25  16  68 S3        29.82S
BURLINGTON CO  CLOUDY    25   5  42 E8        29.83R
LIMON CO       CLEAR     15   7  70 N9        29.80F
$$

...UNOFFICIAL OBSERVATIONS...

CITY           SKY/WX    TMP DP  RH WIND       PRES   REMARKS
LENORA KS        N/A     26  32 100 NE5         N/A
SHARON SPRINGS   N/A     23   7  50 NE9         N/A
TRIBUNE KS     PTCLDY    27   9  46 E12       29.84S WCI  16
TRENTON NEB      N/A     29  32 100 CALM        N/A
KIT CARSON CO    N/A     27   5  38 MISG        N/A
YUMA CO        FAIR      28  18  64 CALM      29.84R
$$



USA.gov is the U.S. government's official web portal to all federal, state and local government web resources and services.